Stündliche Wetter Bolshie Mozhary

Heute, 17 Juni, Donnerstag

Zeit Temperatur Niederschläge Wind Luftdruck Luftfeuchtigkeit
00:00 +15°C° 0 mm 4 m/S 752 mmHg 90%
01:00 +14°C° 0 mm 3 m/S 752 mmHg 89%
02:00 +14°C° 0 mm 3 m/S 753 mmHg 87%
03:00 +13°C° 0 mm 3 m/S 753 mmHg 86%
04:00 +13°C° 0 mm 3 m/S 753 mmHg 86%
05:00 +13°C° 0 mm 3 m/S 754 mmHg 86%
06:00 +13°C° 0 mm 3 m/S 754 mmHg 85%
07:00 +16°C° 0 mm 3 m/S 754 mmHg 77%
08:00 +18°C° 0 mm 4 m/S 755 mmHg 69%
09:00 +20°C° 0 mm 4 m/S 755 mmHg 61%
10:00 +21°C° 0 mm 4 m/S 755 mmHg 58%
11:00 +22°C° 0 mm 4 m/S 756 mmHg 54%
12:00 +23°C° 0 mm 4 m/S 756 mmHg 50%
13:00 +23°C° 0 mm 4 m/S 756 mmHg 50%
14:00 +23°C° 0 mm 4 m/S 756 mmHg 51%
15:00 +23°C° 0 mm 4 m/S 756 mmHg 51%
16:00 +23°C° 0 mm 4 m/S 756 mmHg 56%
17:00 +24°C° 0 mm 3 m/S 756 mmHg 60%
18:00 +22°C° 0 mm 3 m/S 756 mmHg 64%
19:00 +20°C° 0 mm 3 m/S 757 mmHg 69%
20:00 +19°C° 0 mm 3 m/S 757 mmHg 73%
21:00 +17°C° 0 mm 3 m/S 757 mmHg 77%
22:00 +16°C° 0 mm 3 m/S 758 mmHg 76%
23:00 +14°C° 0 mm 3 m/S 758 mmHg 76%

Morgen, 18 Juni, Freitag

Zeit Temperatur Niederschläge Wind Luftdruck Luftfeuchtigkeit
00:00 +14°C° 0 mm 3 m/S 758 mmHg 75%
01:00 +13°C° 0 mm 3 m/S 758 mmHg 76%
02:00 +14°C° 0 mm 2 m/S 759 mmHg 78%
03:00 +13°C° 0 mm 2 m/S 759 mmHg 80%
04:00 +14°C° 0 mm 2 m/S 759 mmHg 80%
05:00 +15°C° 0 mm 2 m/S 759 mmHg 80%
06:00 +15°C° 0 mm 2 m/S 760 mmHg 81%
07:00 +17°C° 0 mm 2 m/S 760 mmHg 74%
08:00 +19°C° 0 mm 2 m/S 760 mmHg 68%
09:00 +20°C° 0 mm 3 m/S 760 mmHg 62%
10:00 +21°C° 0 mm 3 m/S 760 mmHg 58%
11:00 +22°C° 0 mm 3 m/S 760 mmHg 54%
12:00 +24°C° 0 mm 2 m/S 760 mmHg 51%
13:00 +24°C° 0 mm 2 m/S 760 mmHg 51%
14:00 +25°C° 0 mm 2 m/S 760 mmHg 51%
15:00 +25°C° 0 mm 2 m/S 760 mmHg 51%
16:00 +25°C° 0 mm 2 m/S 760 mmHg 55%
17:00 +24°C° 0 mm 2 m/S 759 mmHg 60%
18:00 +24°C° 0 mm 2 m/S 759 mmHg 65%
19:00 +22°C° 0 mm 1 m/S 759 mmHg 70%
20:00 +21°C° 0 mm 1 m/S 759 mmHg 74%
21:00 +19°C° 0 mm 1 m/S 759 mmHg 79%
22:00 +18°C° 0 mm 1 m/S 760 mmHg 81%
23:00 +16°C° 0 mm 1 m/S 760 mmHg 83%

übermorgen, 19 Juni, Samstag

Zeit Temperatur Niederschläge Wind Luftdruck Luftfeuchtigkeit
00:00 +16°C° 0 mm 1 m/S 760 mmHg 86%
01:00 +15°C° 0 mm 1 m/S 760 mmHg 87%
02:00 +15°C° 0 mm 1 m/S 760 mmHg 88%
03:00 +15°C° 0 mm 1 m/S 760 mmHg 89%
04:00 +16°C° 0 mm 1 m/S 761 mmHg 86%
05:00 +16°C° 0 mm 1 m/S 761 mmHg 84%
06:00 +18°C° 0 mm 1 m/S 761 mmHg 81%
07:00 +20°C° 0 mm 1 m/S 761 mmHg 76%
08:00 +21°C° 0 mm 1 m/S 761 mmHg 72%
09:00 +23°C° 0 mm 1 m/S 761 mmHg 67%
10:00 +24°C° 0 mm 1 m/S 761 mmHg 64%
11:00 +24°C° 0 mm 1 m/S 760 mmHg 61%
12:00 +25°C° 0 mm 2 m/S 760 mmHg 58%
13:00 +25°C° 0 mm 2 m/S 760 mmHg 57%
14:00 +26°C° 0 mm 2 m/S 760 mmHg 56%
15:00 +26°C° 0 mm 2 m/S 759 mmHg 55%
16:00 +26°C° 0 mm 1 m/S 759 mmHg 57%
17:00 +26°C° 0 mm 1 m/S 759 mmHg 60%
18:00 +26°C° 0 mm 1 m/S 759 mmHg 63%
19:00 +24°C° 0 mm 1 m/S 759 mmHg 68%
20:00 +22°C° 0 mm 1 m/S 759 mmHg 73%
21:00 +18°C° 0 mm 0 m/S 759 mmHg 78%
22:00 +17°C° 0 mm 0 m/S 759 mmHg 80%
23:00 +16°C° 0 mm 0 m/S 759 mmHg 81%

20 Juni, Sonntag

Zeit Temperatur Niederschläge Wind Luftdruck Luftfeuchtigkeit
00:00 +16°C° 0 mm 0 m/S 759 mmHg 83%
01:00 +15°C° 0 mm 0 m/S 759 mmHg 84%
02:00 +15°C° 0 mm 0 m/S 759 mmHg 85%
03:00 +15°C° 0 mm 0 m/S 759 mmHg 86%
04:00 +16°C° 0 mm 0 m/S 759 mmHg 84%
05:00 +16°C° 0 mm 0 m/S 759 mmHg 82%
06:00 +17°C° 0 mm 0 m/S 759 mmHg 80%
07:00 +19°C° 0 mm 0 m/S 759 mmHg 75%
08:00 +22°C° 0 mm 1 m/S 759 mmHg 70%
09:00 +24°C° 0 mm 1 m/S 759 mmHg 66%
10:00 +25°C° 0 mm 1 m/S 759 mmHg 62%
11:00 +26°C° 0 mm 1 m/S 759 mmHg 58%
12:00 +27°C° 0 mm 2 m/S 758 mmHg 55%
13:00 +27°C° 0 mm 2 m/S 758 mmHg 54%
14:00 +28°C° 0 mm 1 m/S 758 mmHg 53%
15:00 +28°C° 0 mm 1 m/S 757 mmHg 52%
16:00 +28°C° 0 mm 1 m/S 757 mmHg 55%
17:00 +28°C° 0 mm 1 m/S 757 mmHg 58%
18:00 +26°C° 0 mm 0 m/S 757 mmHg 61%
19:00 +24°C° 0 mm 0 m/S 757 mmHg 67%
20:00 +22°C° 0 mm 0 m/S 757 mmHg 72%
21:00 +20°C° 0 mm 0 m/S 757 mmHg 78%
22:00 +21°C° 0 mm 1 m/S 757 mmHg 80%
23:00 +20°C° 0 mm 1 m/S 757 mmHg 82%

21 Juni, Montag

Zeit Temperatur Niederschläge Wind Luftdruck Luftfeuchtigkeit
00:00 +20°C° 0 mm 1 m/S 757 mmHg 85%
01:00 +19°C° 0 mm 1 m/S 757 mmHg 85%
02:00 +19°C° 0 mm 1 m/S 757 mmHg 86%
03:00 +17°C° 0 mm 0 m/S 757 mmHg 86%
04:00 +20°C° 0 mm 1 m/S 757 mmHg 85%
05:00 +21°C° 0 mm 1 m/S 757 mmHg 83%
06:00 +21°C° 0 mm 1 m/S 757 mmHg 81%
07:00 +23°C° 0 mm 1 m/S 757 mmHg 77%
08:00 +24°C° 0 mm 1 m/S 757 mmHg 72%
09:00 +26°C° 0 mm 1 m/S 757 mmHg 67%
10:00 +27°C° 0 mm 1 m/S 757 mmHg 63%
11:00 +28°C° 0 mm 1 m/S 757 mmHg 59%
12:00 +29°C° 0 mm 1 m/S 756 mmHg 56%
13:00 +29°C° 0 mm 1 m/S 756 mmHg 54%
14:00 +30°C° 0 mm 1 m/S 756 mmHg 52%
15:00 +30°C° 0 mm 1 m/S 756 mmHg 51%
16:00 +30°C° 0 mm 1 m/S 756 mmHg 54%
17:00 +28°C° 0 mm 0 m/S 756 mmHg 58%
18:00 +28°C° 0 mm 0 m/S 755 mmHg 61%
19:00 +26°C° 0 mm 0 m/S 755 mmHg 66%
20:00 +24°C° 0 mm 0 m/S 755 mmHg 71%
21:00 +24°C° 0 mm 1 m/S 755 mmHg 76%
22:00 +23°C° 0 mm 1 m/S 755 mmHg 78%
23:00 +22°C° 0 mm 1 m/S 755 mmHg 80%

22 Juni, Dienstag

Zeit Temperatur Niederschläge Wind Luftdruck Luftfeuchtigkeit
00:00 +22°C° 0 mm 1 m/S 755 mmHg 82%
01:00 +21°C° 0 mm 1 m/S 756 mmHg 83%
02:00 +21°C° 0 mm 1 m/S 756 mmHg 84%
03:00 +19°C° 0 mm 0 m/S 756 mmHg 85%
04:00 +20°C° 0 mm 0 m/S 756 mmHg 83%
05:00 +20°C° 0 mm 0 m/S 756 mmHg 82%
06:00 +21°C° 0 mm 0 m/S 756 mmHg 80%
07:00 +23°C° 0 mm 0 m/S 756 mmHg 75%
08:00 +24°C° 0 mm 0 m/S 756 mmHg 71%
09:00 +28°C° 0 mm 1 m/S 756 mmHg 66%
10:00 +29°C° 0 mm 1 m/S 756 mmHg 62%
11:00 +30°C° 0 mm 1 m/S 756 mmHg 58%
12:00 +31°C° 0 mm 1 m/S 756 mmHg 54%
13:00 +31°C° 0 mm 1 m/S 756 mmHg 52%
14:00 +31°C° 0 mm 1 m/S 756 mmHg 51%
15:00 +32°C° 0 mm 1 m/S 756 mmHg 50%
16:00 +31°C° 0 mm 1 m/S 756 mmHg 54%
17:00 +31°C° 0 mm 1 m/S 755 mmHg 58%
18:00 +31°C° 0 mm 1 m/S 755 mmHg 62%
19:00 +29°C° 0 mm 1 m/S 755 mmHg 67%
20:00 +27°C° 0 mm 1 m/S 755 mmHg 72%
21:00 +25°C° 0 mm 1 m/S 756 mmHg 77%
22:00 +24°C° 0.2 mm 2 m/S 756 mmHg 81%
23:00 +23°C° 0.2 mm 2 m/S 756 mmHg 85%
Mehr zeigen

Wir brauchen deine Erlaubnis

Meteoprog und unser Service Anbieter werden persönliche Daten aufbewahren, so wie Cookies, Geräte Bezeichnung oder ähnliche Technologien von deinem Gerät und Prozess, so wie Persönliche Daten Inhalte und Werbungen, genauso wie social Media und den Verkehr zu analysieren.

  • Aufbewahrung und/oder Zugang zu deiner Geräte Informationen.

    Cookies, Geräte Bezeichnung oder andere Informationen, können aufbewahrt oder Zugang zu deinem Gerät erhalten, für den Grund, der oben angegeben wird.

  • Personalisierte Werbung und Inhalte, Messungen, Einblick in das Publikum und Produkt Entwicklung.

    Werbungen und Inhalte können personalisiert werden, basierend auf ein Profil. Mehr Daten können besser personalisierte Werbungen und Inhalte hinzufügen. Werbung und Inhalte können gezeigt und gemessen werden. Einblicke über das Publikum, welche die Werbung gesehen haben und den Inhalt, können abgeleitet werden. So wie Daten können genutzt werden, um es zu verbessern oder die Benutzer Erfahrung zu verbessern das System und die Software.

Wenn du “Ich stimme zu” klickst, erlaubst du uns, die Cookies zu benutzen die Geräte Bezeichnung, den Web oder ähnliche Technologien zu benutzen. Deine Settings, können in deinem Gerät bei deinem Browser geändert werden.

Für den bestimmten Zweck, berechtigten Interessen beruhen darauf, mehr als auf den Inhalt. Du kannst mehr darüber in unseren Privaten und Cookie Politik lesen.